When you browse on this site, cookies collect data to enhance your experience and personalize the content and advertising you see.
Visit our Privacy Policy to learn more. By continuing to use the site, you agree to this use of cookies and data.
  • In Lithuania
  • List of Countries
  • For 7 days
  • Water Temperature
  • Satellite Maps
  • Weather Map
  • Weather Widgets
  • user-avatar
    Login

    Hourly Weather Novoternovskiy

    Today, 11 December, Tuesday

    Time Temperature Precipitation Wind Pressure Humidity
    00:00 +3°C° 0 mm 4 mps 743 mmHg 88%
    01:00 +3°C° 0 mm 4 mps 742 mmHg 89%
    02:00 +2°C° 0 mm 5 mps 742 mmHg 90%
    03:00 +2°C° 0 mm 3 mps 742 mmHg 92%
    04:00 +1°C° 0 mm 4 mps 742 mmHg 92%
    05:00 +3°C° 0 mm 4 mps 742 mmHg 91%
    06:00 +2°C° 0 mm 5 mps 742 mmHg 90%
    07:00 +2°C° 0 mm 5 mps 741 mmHg 89%
    08:00 +2°C° 0 mm 6 mps 741 mmHg 89%
    09:00 +2°C° 0 mm 6 mps 740 mmHg 88%
    10:00 +3°C° 0 mm 6 mps 740 mmHg 85%
    11:00 +4°C° 0 mm 7 mps 739 mmHg 83%
    12:00 +5°C° 0 mm 7 mps 739 mmHg 81%
    13:00 +5°C° 0 mm 7 mps 738 mmHg 81%
    14:00 +5°C° 0 mm 7 mps 738 mmHg 81%
    15:00 +5°C° 0 mm 7 mps 737 mmHg 82%
    16:00 +5°C° 0.1 mm 6 mps 738 mmHg 84%
    17:00 +5°C° 0.1 mm 5 mps 738 mmHg 87%
    18:00 +5°C° 0.1 mm 3 mps 738 mmHg 90%
    19:00 +5°C° 0.2 mm 3 mps 738 mmHg 91%
    20:00 +5°C° 0.2 mm 3 mps 738 mmHg 93%
    21:00 +6°C° 0.2 mm 2 mps 739 mmHg 94%
    22:00 +6°C° 0 mm 2 mps 739 mmHg 94%
    23:00 +5°C° 0 mm 2 mps 739 mmHg 93%

    Tomorrow, 12 December, Wednesday

    Time Temperature Precipitation Wind Pressure Humidity
    00:00 +6°C° 0 mm 1 mps 740 mmHg 93%
    01:00 +5°C° 0 mm 2 mps 740 mmHg 93%
    02:00 +5°C° 0 mm 2 mps 740 mmHg 93%
    03:00 +5°C° 0 mm 2 mps 741 mmHg 94%
    04:00 +5°C° 0 mm 2 mps 741 mmHg 93%
    05:00 +5°C° 0 mm 2 mps 741 mmHg 93%
    06:00 +4°C° 0 mm 2 mps 741 mmHg 93%
    07:00 +5°C° 0 mm 2 mps 741 mmHg 93%
    08:00 +4°C° 0 mm 3 mps 741 mmHg 93%
    09:00 +4°C° 0 mm 3 mps 741 mmHg 93%
    10:00 +5°C° 0 mm 3 mps 741 mmHg 88%
    11:00 +7°C° 0 mm 2 mps 741 mmHg 84%
    12:00 +8°C° 0 mm 2 mps 741 mmHg 80%
    13:00 +8°C° 0.2 mm 2 mps 741 mmHg 82%
    14:00 +8°C° 0.2 mm 1 mps 741 mmHg 83%
    15:00 +8°C° 0.2 mm 1 mps 741 mmHg 84%
    16:00 +8°C° 0.5 mm 1 mps 742 mmHg 87%
    17:00 +7°C° 0.5 mm 1 mps 742 mmHg 89%
    18:00 +6°C° 0.5 mm 2 mps 742 mmHg 92%
    19:00 +5°C° 1.3 mm 2 mps 742 mmHg 91%
    20:00 +5°C° 1.3 mm 2 mps 743 mmHg 90%
    21:00 +4°C° 1.3 mm 3 mps 743 mmHg 90%
    22:00 +4°C° 0.5 mm 3 mps 743 mmHg 88%
    23:00 +4°C° 0.5 mm 2 mps 744 mmHg 86%

    Day after tomorrow, 13 December, Thursday

    Time Temperature Precipitation Wind Pressure Humidity
    00:00 +4°C° 0.5 mm 2 mps 744 mmHg 84%
    01:00 +4°C° 0.2 mm 2 mps 744 mmHg 83%
    02:00 +4°C° 0.2 mm 2 mps 744 mmHg 83%
    03:00 +4°C° 0.2 mm 2 mps 745 mmHg 83%
    04:00 +4°C° 0.1 mm 2 mps 745 mmHg 84%
    05:00 +3°C° 0.1 mm 2 mps 745 mmHg 84%
    06:00 +3°C° 0.1 mm 2 mps 745 mmHg 85%
    07:00 +3°C° 0 mm 2 mps 746 mmHg 84%
    08:00 +2°C° 0 mm 3 mps 746 mmHg 84%
    09:00 +2°C° 0 mm 3 mps 747 mmHg 83%
    10:00 +2°C° 0 mm 3 mps 747 mmHg 80%
    11:00 +3°C° 0 mm 3 mps 747 mmHg 76%
    12:00 +3°C° 0 mm 3 mps 747 mmHg 73%
    13:00 +3°C° 0 mm 3 mps 748 mmHg 72%
    14:00 +3°C° 0 mm 3 mps 748 mmHg 70%
    15:00 +4°C° 0 mm 3 mps 748 mmHg 69%
    16:00 +3°C° 0 mm 3 mps 749 mmHg 73%
    17:00 +3°C° 0 mm 2 mps 749 mmHg 76%
    18:00 +3°C° 0 mm 2 mps 749 mmHg 80%
    19:00 +2°C° 0 mm 2 mps 750 mmHg 81%
    20:00 +2°C° 0 mm 2 mps 750 mmHg 81%
    21:00 +2°C° 0 mm 2 mps 751 mmHg 82%
    22:00 +2°C° 0 mm 2 mps 751 mmHg 83%
    23:00 +2°C° 0 mm 2 mps 751 mmHg 83%

    14 December, Friday

    Time Temperature Precipitation Wind Pressure Humidity
    00:00 +2°C° 0 mm 2 mps 751 mmHg 84%
    01:00 +2°C° 0 mm 2 mps 751 mmHg 85%
    02:00 +1°C° 0 mm 2 mps 752 mmHg 86%
    03:00 +1°C° 0 mm 2 mps 752 mmHg 86%
    04:00 +1°C° 0 mm 2 mps 752 mmHg 86%
    05:00 +2°C° 0 mm 1 mps 752 mmHg 87%
    06:00 +1°C° 0 mm 1 mps 752 mmHg 87%
    07:00 +2°C° 0 mm 1 mps 752 mmHg 84%
    08:00 +2°C° 0 mm 1 mps 752 mmHg 82%
    09:00 +3°C° 0 mm 1 mps 752 mmHg 80%
    10:00 +4°C° 0 mm 1 mps 752 mmHg 74%
    11:00 +5°C° 0 mm 1 mps 752 mmHg 68%
    12:00 +6°C° 0 mm 1 mps 751 mmHg 62%
    13:00 +6°C° 0 mm 1 mps 751 mmHg 61%
    14:00 +6°C° 0 mm 1 mps 751 mmHg 61%
    15:00 +7°C° 0 mm 1 mps 751 mmHg 60%
    16:00 +6°C° 0 mm 1 mps 752 mmHg 64%
    17:00 +5°C° 0 mm 1 mps 752 mmHg 68%
    18:00 +3°C° 0 mm 0 mps 752 mmHg 72%
    19:00 +4°C° 0 mm 1 mps 752 mmHg 73%
    20:00 +4°C° 0 mm 1 mps 752 mmHg 74%
    21:00 +2°C° 0 mm 2 mps 753 mmHg 75%
    22:00 +2°C° 0 mm 2 mps 753 mmHg 75%
    23:00 +2°C° 0 mm 2 mps 753 mmHg 76%

    15 December, Saturday

    Time Temperature Precipitation Wind Pressure Humidity
    00:00 +2°C° 0 mm 2 mps 753 mmHg 76%
    01:00 +2°C° 0 mm 2 mps 753 mmHg 76%
    02:00 +1°C° 0 mm 2 mps 753 mmHg 76%
    03:00 +1°C° 0 mm 2 mps 753 mmHg 76%
    04:00 +1°C° 0 mm 2 mps 753 mmHg 77%
    05:00 +1°C° 0 mm 2 mps 753 mmHg 77%
    06:00 +1°C° 0 mm 2 mps 754 mmHg 77%
    07:00 +2°C° 0 mm 2 mps 754 mmHg 76%
    08:00 +2°C° 0 mm 2 mps 754 mmHg 75%
    09:00 +2°C° 0 mm 2 mps 755 mmHg 74%
    10:00 +3°C° 0 mm 2 mps 755 mmHg 73%
    11:00 +3°C° 0 mm 3 mps 755 mmHg 71%
    12:00 +4°C° 0 mm 3 mps 755 mmHg 69%
    13:00 +4°C° 0 mm 3 mps 755 mmHg 69%
    14:00 +4°C° 0 mm 3 mps 755 mmHg 69%
    15:00 +4°C° 0 mm 3 mps 755 mmHg 70%
    16:00 +3°C° 0 mm 3 mps 756 mmHg 74%
    17:00 +3°C° 0 mm 2 mps 756 mmHg 79%
    18:00 +2°C° 0 mm 2 mps 756 mmHg 84%
    19:00 +1°C° 0 mm 2 mps 757 mmHg 85%
    20:00 +1°C° 0 mm 2 mps 757 mmHg 87%
    21:00 +1°C° 0 mm 1 mps 757 mmHg 89%
    22:00 +1°C° 0 mm 1 mps 757 mmHg 89%
    23:00 -1°C° 0 mm 2 mps 757 mmHg 90%

    16 December, Sunday

    Time Temperature Precipitation Wind Pressure Humidity
    00:00 -2°C° 0 mm 2 mps 757 mmHg 91%
    01:00 -2°C° 0 mm 2 mps 757 mmHg 90%
    02:00 -2°C° 0 mm 2 mps 757 mmHg 90%
    03:00 -2°C° 0 mm 2 mps 758 mmHg 90%
    04:00 -2°C° 0 mm 2 mps 758 mmHg 89%
    05:00 -2°C° 0 mm 3 mps 758 mmHg 89%
    06:00 -2°C° 0 mm 3 mps 758 mmHg 88%
    07:00 -2°C° 0 mm 3 mps 758 mmHg 86%
    08:00 -3°C° 0 mm 4 mps 758 mmHg 84%
    09:00 -3°C° 0 mm 4 mps 758 mmHg 83%
    10:00 -4°C° 0 mm 5 mps 758 mmHg 79%
    11:00 -2°C° 0 mm 5 mps 758 mmHg 76%
    12:00 -1°C° 0 mm 5 mps 758 mmHg 72%
    13:00 -1°C° 0 mm 5 mps 758 mmHg 72%
    14:00 -2°C° 0 mm 6 mps 757 mmHg 71%
    15:00 -2°C° 0 mm 6 mps 757 mmHg 71%
    16:00 -3°C° 0 mm 6 mps 757 mmHg 73%
    17:00 -3°C° 0 mm 6 mps 758 mmHg 75%
    18:00 -4°C° 0 mm 6 mps 758 mmHg 77%
    19:00 -4°C° 0 mm 6 mps 758 mmHg 77%
    20:00 -4°C° 0 mm 6 mps 758 mmHg 77%
    21:00 -4°C° 0 mm 7 mps 758 mmHg 77%
    22:00 -4°C° 0 mm 7 mps 757 mmHg 78%
    23:00 -4°C° 0 mm 7 mps 757 mmHg 78%
    Show more